Regional Weather Roundup
Issued by NWS

Home | Current Version | Previous Version | Text Only | Print | Product List | Glossary On
Versions: 1 2 3 4 5 6 7 8 9 10 11 12 13 14 15 16 17 18 19 20 21 22 23 24 25 26 27 28 29 30 31 32 33 34 35 36 37 38 39 40 41 42 43 44 45 46 47 48 49 50
000
ASUS43 KDMX 220707
RWRIA

WEATHER ROUNDUP FOR IOWA
NATIONAL WEATHER SERVICE DES MOINES IA
200 AM CDT FRI MAY 22 2015

NOTE: "FAIR" INDICATES FEW OR NO CLOUDS BELOW 12,000 FEET WITH NO
SIGNIFICANT WEATHER AND/OR OBSTRUCTIONS TO VISIBILITY.

* - THESE STATIONS ARE NOT NWS STATIONS...THUS NOT UNDER NWS
QUALITY CONTROL.  THEY ALSO DO NOT REPORT WEATHER SUCH
AS PRECIPITATION OR FOG.

IAZ001>003-012>014-020>022-031>034-043>046-220800-
   NORTHWEST IOWA

CITY           SKY/WX    TMP DP  RH WIND       PRES   REMARKS
CARROLL *      CLEAR     54  41  62 W12       30.16S
CHEROKEE *     CLEAR     50  43  76 S3        30.16S
DENISON *      PTCLDY    52  41  66 CALM      30.17R
LE MARS *      CLEAR     46  43  87 S3        30.18S
ORANGE CITY *  CLEAR     52  41  66 W6        30.16S
SHELDON *      CLEAR     46  39  76 NE6       30.16R
SIOUX CITY     CLEAR     53  38  56 NW3       30.18R
SPENCER        CLEAR     44  39  82 SW9       30.16R
STORM LAKE *   CLEAR     52  41  66 W10       30.17R
$$

IAZ055>058-069>071-079>083-090>094-220800-
   SOUTHWEST IOWA

CITY           SKY/WX    TMP DP  RH WIND       PRES   REMARKS
ATLANTIC *     CLEAR     50  43  76 CALM      30.19R
AUDUBON *      CLEAR     50  43  76 CALM      30.19S
CLARINDA *     CLEAR     52  45  76 CALM      30.22R
COUNCIL BLFS * CLEAR     54  43  66 W7        30.20S
CRESTON *      CLEAR     50  45  81 W9        30.19S
HARLAN  *      CLEAR     54  43  66 W6        30.22S
LAMONI         CLEAR     56  43  61 W10       30.18R
RED OAK *      CLEAR     50  45  81 S3        30.20R
SHENANDOAH *   CLEAR     50  45  81 SW5       30.22R
$$

IAZ047>049-059>061-072>074-084-220800-
   CENTRAL IOWA

CITY           SKY/WX    TMP DP  RH WIND       PRES   REMARKS
AMES           CLEAR     50  41  71 W8        30.13R
ANKENY *       CLEAR     52  43  71 W10       30.14R
CHARITON *     CLEAR     55  43  62 W10       30.16R
DES MOINES     CLEAR     55  41  59 W7        30.15R
GRINNELL*      CLEAR     52  39  62 W7        30.13R
KNOXVILLE *    CLEAR     54  45  71 W9        30.13R
MARSHALLTOWN   CLEAR     48  35  60 W6        30.11R
PELLA *        CLEAR     54  48  82 W8        30.14S
PERRY *          N/A     50  43  76 W9        30.16R
$$

IAZ004>006-015-016-023>025-035-036-220800-
   NORTH CENTRAL IOWA

CITY           SKY/WX    TMP DP  RH WIND       PRES   REMARKS
ALGONA *       CLEAR     52  36  54 NW6       30.14S
CLARION *      CLEAR     46  37  71 CALM      30.13S
ESTHERVILLE    CLEAR     46  33  60 W7        30.14R
FORT DODGE *   CLEAR     45  37  76 W3        30.15R
MASON CITY     CLEAR     46  37  71 NW7       30.13R
FOREST CITY *  CLEAR     41  37  87 CALM      30.13R
IOWA FALLS *     N/A     46  36  66 W6        30.13R
$$

IAZ007>011-017>019-026>030-037>042-050>054-066-220800-
   NORTHEAST IOWA

CITY           SKY/WX    TMP DP  RH WIND       PRES   REMARKS
CEDAR RAPIDS   CLEAR     46  37  71 W9        30.08S
CHARLES CITY * CLEAR     50  37  62 NW5       30.11S
CLINTON *      CLEAR     48  39  71 NW7       30.09R
DECORAH *      CLEAR     52  37  58 NW3       30.09S
DUBUQUE        CLEAR     54  38  54 NW10      30.07R
MONTICELLO *   CLEAR     46  45  93 CALM      30.08R
OELWEIN *      CLEAR     50  37  62 N7        30.10S
WATERLOO       CLEAR     48  42  80 W3        30.10R
$$

IAZ064-065-067-068-078-220800-
   EAST CENTRAL IOWA

CITY           SKY/WX    TMP DP  RH WIND       PRES   REMARKS
DAVENPORT      CLEAR     50  41  71 W6        30.08R
IOWA CITY      CLEAR     49  38  65 W6        30.11R
MT. PLEASANT * CLEAR     55  45  67 W8        30.11S
MUSCATINE *    CLEAR     54  41  62 CALM      30.09R
QUAD CITIES    CLEAR     48  42  80 W3        30.07R
$$

IAZ062-063-075>077-085>089-095>099-220800-
   SOUTHEAST IOWA

CITY           SKY/WX    TMP DP  RH WIND       PRES   REMARKS
BURLINGTON     CLEAR     57  47  69 W9        30.10R
FAIRFIELD *    CLEAR     54  45  71 W8        30.12R
FORT MADISON * CLEAR     55  46  71 SW8       30.13R
KEOKUK *       CLEAR     55  48  76 W12       30.12S
OSKALOOSA *      N/A     52  45  76 W9        30.13R
CENTERVILLE *  CLEAR     54  54 100 W12       30.18R
OTTUMWA        CLEAR     53  44  71 W10       30.13R
WASHINGTON *   CLEAR     54  45  71 W9        30.12R
$$

ABBREVIATIONS USED IN REMARKS
   TC - TEMPERATURES IN CELSIUS
  WCI - WIND CHILL INDEX
   HX - HEAT INDEX
  VSB - VISIBILITY
$$



USA.gov is the U.S. government's official web portal to all federal, state and local government web resources and services.